WZZ29AV EPKK-LGKR

Flight info

Callsign WZZ29AV
Flight time 1h 44m
Altitude 35000
Route BABKO DCT NIDOK DCT PARAK DCT KOTUS DCT AKIKA DCT LIMJA N732 PITAS
Aircraft A320/M-SDE3FGHIRWY/LB1

Departure

Time 2026-05-01 07:35
Airport Kraków John Paul II International Airport (EPKK)

Arrival

Time 2026-05-01 09:19
Airport Corfu Ioannis Kapodistrias International Airport (LGKR)
Time Latitude Longitude Altitude Speed Heading
2026-05-01 07:23 50.07475 19.80079 800 ft 0 kts 168°
2026-05-01 07:31 50.07417 19.80119 800 ft 6 kts 116°
2026-05-01 07:32 50.07437 19.80276 800 ft 9 kts 77°
2026-05-01 07:32 50.07467 19.80369 800 ft 11 kts 39°
2026-05-01 07:33 50.07635 19.80406 800 ft 14 kts 347°
2026-05-01 07:33 50.07741 19.80368 800 ft 17 kts 347°
2026-05-01 07:33 50.07925 19.80310 793 ft 9 kts 347°
2026-05-01 07:34 50.07985 19.80289 795 ft 8 kts 348°
2026-05-01 07:34 50.07999 19.80093 795 ft 17 kts 258°
2026-05-01 07:34 50.07922 19.79556 796 ft 85 kts 258°
2026-05-01 07:35 50.07749 19.78358 797 ft 138 kts 256°
2026-05-01 07:35 50.07508 19.76809 1257 ft 146 kts 256°
2026-05-01 07:35 50.07301 19.75252 1946 ft 147 kts 257°
2026-05-01 07:35 50.07082 19.73644 2378 ft 161 kts 260°
2026-05-01 07:36 50.06832 19.71816 2722 ft 184 kts 259°
2026-05-01 07:36 50.06550 19.69758 3003 ft 206 kts 260°
2026-05-01 07:36 50.06236 19.67475 3407 ft 227 kts 260°
2026-05-01 07:36 50.05661 19.65123 4063 ft 242 kts 234°
2026-05-01 07:37 50.02372 19.63502 5376 ft 277 kts 169°
2026-05-01 07:37 50.00488 19.64296 6185 ft 283 kts 159°
2026-05-01 07:37 49.98612 19.65333 6997 ft 289 kts 158°
2026-05-01 07:38 49.96694 19.66368 7807 ft 294 kts 159°
2026-05-01 07:38 49.94728 19.67307 8623 ft 299 kts 161°
2026-05-01 07:38 49.90656 19.68885 10213 ft 310 kts 167°
2026-05-01 07:39 49.88470 19.69006 10812 ft 324 kts 182°
2026-05-01 07:39 49.86184 19.68247 11011 ft 350 kts 199°
2026-05-01 07:39 49.81753 19.64553 12022 ft 369 kts 210°
2026-05-01 07:40 49.79506 19.62603 12687 ft 373 kts 209°
2026-05-01 07:40 49.77219 19.60648 13337 ft 377 kts 209°
2026-05-01 07:40 49.74909 19.58685 14002 ft 381 kts 208°
2026-05-01 07:40 49.72578 19.56706 14601 ft 385 kts 208°
2026-05-01 07:41 49.70218 19.54697 15174 ft 388 kts 209°
2026-05-01 07:41 49.67843 19.52666 15728 ft 392 kts 208°
2026-05-01 07:41 49.63024 19.48537 16856 ft 400 kts 208°
2026-05-01 07:42 49.60578 19.46443 17425 ft 404 kts 208°
2026-05-01 07:42 49.58125 19.44303 17964 ft 407 kts 209°
2026-05-01 07:42 49.55657 19.42105 18523 ft 411 kts 209°
2026-05-01 07:42 49.53181 19.39876 19022 ft 415 kts 209°
2026-05-01 07:43 49.50677 19.37621 19502 ft 419 kts 209°
2026-05-01 07:43 49.48148 19.35350 19984 ft 423 kts 209°
2026-05-01 07:43 49.43009 19.30780 20931 ft 431 kts 208°
2026-05-01 07:44 49.37772 19.26147 21819 ft 438 kts 208°
2026-05-01 07:44 49.32481 19.21476 22695 ft 445 kts 208°
2026-05-01 07:45 49.29788 19.19106 23141 ft 449 kts 208°
2026-05-01 07:45 49.27069 19.16715 23587 ft 452 kts 208°
2026-05-01 07:45 49.24325 19.14306 24002 ft 456 kts 208°
2026-05-01 07:45 49.21565 19.11882 24384 ft 459 kts 207°
2026-05-01 07:46 49.18788 19.09445 24780 ft 461 kts 208°
2026-05-01 07:46 49.15996 19.06999 25131 ft 464 kts 208°
2026-05-01 07:46 49.10360 19.02071 25855 ft 469 kts 207°
2026-05-01 07:47 49.07519 18.99592 26214 ft 472 kts 207°
2026-05-01 07:47 49.04653 18.97097 26585 ft 474 kts 207°
2026-05-01 07:47 49.01780 18.94598 26940 ft 477 kts 207°
2026-05-01 07:47 48.98887 18.92088 27286 ft 480 kts 207°
2026-05-01 07:48 48.92966 18.87281 27956 ft 482 kts 198°
2026-05-01 07:48 48.89774 18.85739 28274 ft 480 kts 188°
2026-05-01 07:48 48.86489 18.85000 28607 ft 476 kts 178°
2026-05-01 07:49 48.83202 18.85034 28934 ft 470 kts 168°
2026-05-01 07:49 48.76962 18.87214 29600 ft 461 kts 153°
2026-05-01 07:49 48.73905 18.88748 29953 ft 464 kts 153°
2026-05-01 07:50 48.70824 18.90284 30308 ft 466 kts 153°
2026-05-01 07:50 48.64624 18.93330 31005 ft 468 kts 154°
2026-05-01 07:50 48.61522 18.94843 31440 ft 467 kts 153°
2026-05-01 07:51 48.58427 18.96345 31859 ft 466 kts 153°
2026-05-01 07:51 48.55342 18.97843 32282 ft 465 kts 153°
2026-05-01 07:51 48.52292 18.99327 32736 ft 464 kts 153°
2026-05-01 07:52 48.46166 19.02322 33613 ft 462 kts 152°
2026-05-01 07:52 48.43121 19.03815 34049 ft 460 kts 152°
2026-05-01 07:52 48.40075 19.05307 34456 ft 459 kts 152°
2026-05-01 07:53 48.33992 19.08272 35085 ft 459 kts 153°
2026-05-01 07:53 48.30956 19.09740 35319 ft 460 kts 153°
2026-05-01 07:53 48.24831 19.12702 35372 ft 462 kts 153°
2026-05-01 07:55 48.09522 19.20084 35379 ft 462 kts 153°
2026-05-01 07:56 47.94262 19.27405 35387 ft 462 kts 153°
2026-05-01 07:57 47.85074 19.31777 35394 ft 462 kts 154°
2026-05-01 07:58 47.72839 19.37598 35404 ft 462 kts 154°
2026-05-01 07:59 47.60600 19.43366 35418 ft 461 kts 154°
2026-05-01 08:00 47.42276 19.51970 35418 ft 461 kts 154°
2026-05-01 08:01 47.30030 19.57682 35418 ft 461 kts 155°
2026-05-01 08:02 47.20840 19.61953 35387 ft 462 kts 155°
2026-05-01 08:03 47.11643 19.66202 35387 ft 462 kts 155°
2026-05-01 08:03 47.02440 19.70446 35393 ft 462 kts 155°
2026-05-01 08:04 46.90205 19.76073 35396 ft 462 kts 156°
2026-05-01 08:05 46.80993 19.80284 35399 ft 462 kts 156°
2026-05-01 08:06 46.72817 19.84005 35396 ft 462 kts 157°
2026-05-01 08:07 46.60525 19.89593 35388 ft 462 kts 157°
2026-05-01 08:08 46.51307 19.93765 35386 ft 462 kts 158°
2026-05-01 08:09 46.39060 19.99278 35388 ft 462 kts 158°
2026-05-01 08:09 46.32915 20.02030 35390 ft 462 kts 158°
2026-05-01 08:10 46.20628 20.07516 35390 ft 462 kts 159°
2026-05-01 08:11 46.14212 20.08830 35387 ft 471 kts 178°
2026-05-01 08:11 46.07660 20.07783 35384 ft 474 kts 185°
2026-05-01 08:12 45.97876 20.05946 35391 ft 474 kts 185°
2026-05-01 08:13 45.88048 20.04128 35388 ft 474 kts 185°
2026-05-01 08:13 45.78229 20.02302 35390 ft 474 kts 185°
2026-05-01 08:14 45.71731 20.01099 35392 ft 474 kts 185°
2026-05-01 08:14 45.65183 19.99905 35393 ft 473 kts 185°
2026-05-01 08:15 45.55374 19.98098 35398 ft 473 kts 185°
2026-05-01 08:16 45.48849 19.96893 35396 ft 473 kts 185°
2026-05-01 08:16 45.42314 19.95697 35397 ft 472 kts 185°
2026-05-01 08:17 45.35842 19.94516 35398 ft 472 kts 185°
2026-05-01 08:17 45.29329 19.93371 35396 ft 471 kts 184°
2026-05-01 08:18 45.22811 19.92529 35398 ft 470 kts 182°
2026-05-01 08:19 45.09782 19.91051 35396 ft 469 kts 183°
2026-05-01 08:19 45.03284 19.90236 35400 ft 468 kts 184°
2026-05-01 08:20 44.97532 19.89500 35398 ft 468 kts 184°
2026-05-01 08:20 44.91040 19.88683 35395 ft 468 kts 184°
2026-05-01 08:21 44.84557 19.87884 35394 ft 467 kts 184°
2026-05-01 08:21 44.78083 19.87086 35391 ft 467 kts 184°
2026-05-01 08:22 44.71611 19.86291 35386 ft 466 kts 184°
2026-05-01 08:22 44.65143 19.85494 35385 ft 466 kts 184°
2026-05-01 08:23 44.58694 19.84694 35383 ft 465 kts 184°
2026-05-01 08:23 44.52280 19.83906 35380 ft 465 kts 184°
2026-05-01 08:24 44.45819 19.83127 35379 ft 465 kts 184°
2026-05-01 08:24 44.39373 19.82338 35378 ft 464 kts 184°
2026-05-01 08:25 44.32934 19.81551 35371 ft 464 kts 184°
2026-05-01 08:25 44.26500 19.80774 35371 ft 463 kts 184°
2026-05-01 08:26 44.20111 19.80010 35369 ft 463 kts 184°
2026-05-01 08:26 44.13674 19.79234 35362 ft 463 kts 184°
2026-05-01 08:27 44.07257 19.78458 35362 ft 463 kts 185°
2026-05-01 08:27 44.00845 19.77684 35354 ft 462 kts 185°
2026-05-01 08:28 43.94473 19.76916 35354 ft 462 kts 185°
2026-05-01 08:28 43.88071 19.76147 35352 ft 462 kts 185°
2026-05-01 08:29 43.81672 19.75383 35347 ft 461 kts 185°
2026-05-01 08:29 43.75279 19.74620 35347 ft 461 kts 185°
2026-05-01 08:30 43.68886 19.73862 35340 ft 461 kts 185°
2026-05-01 08:30 43.62497 19.73105 35325 ft 461 kts 185°
2026-05-01 08:31 43.56110 19.72347 35328 ft 461 kts 186°
2026-05-01 08:31 43.49725 19.71590 35324 ft 461 kts 186°
2026-05-01 08:32 43.43333 19.70835 35319 ft 461 kts 186°
2026-05-01 08:32 43.36985 19.70087 35316 ft 461 kts 186°
2026-05-01 08:33 43.30599 19.69328 35318 ft 460 kts 186°
2026-05-01 08:33 43.24212 19.68577 35314 ft 460 kts 186°
2026-05-01 08:34 43.17826 19.67835 35310 ft 460 kts 186°
2026-05-01 08:34 43.11448 19.67088 35307 ft 459 kts 186°
2026-05-01 08:35 43.05080 19.66342 35298 ft 459 kts 187°
2026-05-01 08:35 42.98714 19.65613 35293 ft 459 kts 187°
2026-05-01 08:36 42.92351 19.64881 35287 ft 459 kts 187°
2026-05-01 08:36 42.86033 19.64154 35276 ft 459 kts 187°
2026-05-01 08:37 42.79632 19.63411 35263 ft 458 kts 187°
2026-05-01 08:37 42.73315 19.62676 35251 ft 458 kts 188°
2026-05-01 08:38 42.66963 19.61943 35235 ft 458 kts 187°
2026-05-01 08:38 42.60608 19.61217 35219 ft 458 kts 187°
2026-05-01 08:39 42.54251 19.60484 35214 ft 458 kts 188°
2026-05-01 08:39 42.47877 19.59986 35208 ft 460 kts 185°
2026-05-01 08:40 42.38285 19.59773 35207 ft 459 kts 184°
2026-05-01 08:40 42.31908 19.59589 35211 ft 458 kts 184°
2026-05-01 08:41 42.25550 19.59326 35206 ft 457 kts 185°
2026-05-01 08:41 42.19198 19.59054 35202 ft 456 kts 185°
2026-05-01 08:42 42.12853 19.58806 35196 ft 456 kts 185°
2026-05-01 08:42 42.06521 19.58569 35187 ft 455 kts 185°
2026-05-01 08:43 42.00184 19.58327 35182 ft 455 kts 185°
2026-05-01 08:43 41.93898 19.58082 35175 ft 455 kts 185°
2026-05-01 08:44 41.87566 19.57824 35169 ft 455 kts 185°
2026-05-01 08:44 41.81244 19.57572 35163 ft 455 kts 185°
2026-05-01 08:45 41.74916 19.57334 35157 ft 455 kts 186°
2026-05-01 08:45 41.68589 19.57095 35153 ft 455 kts 186°
2026-05-01 08:46 41.62260 19.56861 35148 ft 455 kts 186°
2026-05-01 08:46 41.55937 19.56623 35144 ft 455 kts 186°
2026-05-01 08:47 41.49612 19.56378 35140 ft 455 kts 186°
2026-05-01 08:47 41.43329 19.56138 35144 ft 455 kts 186°
2026-05-01 08:48 41.37004 19.55904 35135 ft 454 kts 186°
2026-05-01 08:48 41.30683 19.55671 35132 ft 454 kts 186°
2026-05-01 08:49 41.24357 19.55429 35122 ft 455 kts 187°
2026-05-01 08:49 41.18027 19.55181 35128 ft 455 kts 187°
2026-05-01 08:50 41.11693 19.54946 35115 ft 456 kts 187°
2026-05-01 08:50 41.05353 19.54718 35112 ft 456 kts 187°
2026-05-01 08:51 40.99006 19.54480 35118 ft 455 kts 187°
2026-05-01 08:51 40.92671 19.54239 35118 ft 455 kts 187°
2026-05-01 08:52 40.86339 19.54008 35112 ft 455 kts 187°
2026-05-01 08:52 40.80007 19.53771 35109 ft 455 kts 187°
2026-05-01 08:53 40.73726 19.53539 35109 ft 454 kts 188°
2026-05-01 08:53 40.67407 19.53306 35106 ft 454 kts 188°
2026-05-01 08:54 40.61091 19.53069 35100 ft 454 kts 188°
2026-05-01 08:54 40.54768 19.53958 35096 ft 470 kts 166°
2026-05-01 08:55 40.48592 19.56883 35088 ft 472 kts 166°
2026-05-01 08:55 40.42402 19.59830 34390 ft 478 kts 166°
2026-05-01 08:56 40.39263 19.61313 33670 ft 480 kts 166°
2026-05-01 08:56 40.36122 19.62796 33087 ft 478 kts 166°
2026-05-01 08:56 40.33004 19.64269 32575 ft 474 kts 166°
2026-05-01 08:56 40.29913 19.65733 32075 ft 471 kts 167°
2026-05-01 08:57 40.26855 19.67179 31596 ft 467 kts 167°
2026-05-01 08:57 40.23815 19.68618 31125 ft 463 kts 167°
2026-05-01 08:57 40.20834 19.70027 30655 ft 460 kts 167°
2026-05-01 08:57 40.17837 19.71439 30181 ft 456 kts 168°
2026-05-01 08:58 40.14856 19.72841 29635 ft 452 kts 168°
2026-05-01 08:58 40.11912 19.74224 29106 ft 448 kts 168°
2026-05-01 08:58 40.08990 19.75594 28601 ft 444 kts 168°
2026-05-01 08:58 40.07066 19.76495 28261 ft 442 kts 167°
2026-05-01 08:59 40.04192 19.77844 27708 ft 435 kts 167°
2026-05-01 08:59 40.01364 19.79171 26844 ft 429 kts 167°
2026-05-01 08:59 39.98598 19.80461 26065 ft 422 kts 167°
2026-05-01 08:59 39.96195 19.81576 25395 ft 417 kts 167°
2026-05-01 09:00 39.93482 19.82835 24672 ft 411 kts 166°
2026-05-01 09:00 39.90810 19.84071 23937 ft 404 kts 167°
2026-05-01 09:00 39.88105 19.84876 22874 ft 397 kts 176°
2026-05-01 09:00 39.85379 19.85472 21795 ft 397 kts 175°
2026-05-01 09:01 39.82663 19.86071 20747 ft 396 kts 175°
2026-05-01 09:01 39.79951 19.86675 19733 ft 394 kts 174°
2026-05-01 09:01 39.77257 19.87277 18761 ft 392 kts 174°
2026-05-01 09:01 39.74579 19.87872 17734 ft 389 kts 174°
2026-05-01 09:02 39.71923 19.88459 16647 ft 385 kts 173°
2026-05-01 09:02 39.69293 19.89039 15623 ft 381 kts 173°
2026-05-01 09:02 39.66696 19.89611 14624 ft 376 kts 173°
2026-05-01 09:02 39.64140 19.90172 13952 ft 365 kts 173°
2026-05-01 09:03 39.61713 19.90708 13281 ft 354 kts 172°
2026-05-01 09:03 39.59289 19.91242 12601 ft 344 kts 172°
2026-05-01 09:03 39.56996 19.91622 12087 ft 330 kts 182°
2026-05-01 09:03 39.54785 19.91197 11578 ft 316 kts 200°
2026-05-01 09:04 39.52864 19.89944 11062 ft 304 kts 218°
2026-05-01 09:04 39.51390 19.88066 10582 ft 294 kts 235°
2026-05-01 09:04 39.50438 19.85779 10090 ft 285 kts 252°
2026-05-01 09:04 39.50040 19.83301 9577 ft 279 kts 268°
2026-05-01 09:05 39.50183 19.80830 9044 ft 273 kts 283°
2026-05-01 09:05 39.50832 19.78551 8554 ft 267 kts 299°
2026-05-01 09:05 39.51891 19.76615 8174 ft 259 kts 311°
2026-05-01 09:05 39.53115 19.74940 7795 ft 253 kts 315°
2026-05-01 09:06 39.54373 19.73387 7418 ft 247 kts 316°
2026-05-01 09:06 39.55622 19.71887 7045 ft 243 kts 317°
2026-05-01 09:06 39.56864 19.70392 6682 ft 246 kts 316°
2026-05-01 09:06 39.58128 19.68881 6301 ft 249 kts 320°
2026-05-01 09:07 39.59595 19.67685 5912 ft 251 kts 339°
2026-05-01 09:07 39.61285 19.67320 5585 ft 251 kts
2026-05-01 09:07 39.62931 19.67945 5327 ft 246 kts 31°
2026-05-01 09:07 39.64171 19.69422 5077 ft 242 kts 57°
2026-05-01 09:08 39.64778 19.71415 4824 ft 237 kts 83°
2026-05-01 09:08 39.64679 19.73515 4586 ft 232 kts 106°
2026-05-01 09:08 39.64212 19.75507 4503 ft 230 kts 107°
2026-05-01 09:08 39.63748 19.77494 4511 ft 231 kts 107°
2026-05-01 09:09 39.63286 19.79487 4510 ft 231 kts 106°
2026-05-01 09:09 39.62827 19.81481 4510 ft 231 kts 106°
2026-05-01 09:09 39.62366 19.83472 4507 ft 229 kts 107°
2026-05-01 09:09 39.61921 19.85393 4511 ft 217 kts 107°
2026-05-01 09:10 39.61494 19.87236 4501 ft 211 kts 106°
2026-05-01 09:10 39.61044 19.89037 4508 ft 210 kts 113°
2026-05-01 09:10 39.60313 19.90686 4348 ft 212 kts 128°
2026-05-01 09:10 39.59274 19.92025 4186 ft 210 kts 142°
2026-05-01 09:11 39.58047 19.93044 4057 ft 210 kts 147°
2026-05-01 09:11 39.56824 19.94024 3906 ft 209 kts 147°
2026-05-01 09:11 39.55586 19.95019 3739 ft 210 kts 147°
2026-05-01 09:11 39.54339 19.96024 3559 ft 212 kts 147°
2026-05-01 09:12 39.53100 19.97023 3379 ft 208 kts 147°
2026-05-01 09:12 39.51875 19.98011 3199 ft 207 kts 147°
2026-05-01 09:12 39.50656 19.98995 3023 ft 206 kts 146°
2026-05-01 09:12 39.49440 19.99979 2931 ft 206 kts 146°
2026-05-01 09:13 39.48240 20.00947 2918 ft 198 kts 146°
2026-05-01 09:13 39.47100 20.01864 2913 ft 188 kts 147°
2026-05-01 09:13 39.45996 20.02675 2899 ft 180 kts 158°
2026-05-01 09:13 39.44768 20.02901 2906 ft 180 kts 184°
2026-05-01 09:14 39.43579 20.02410 2916 ft 182 kts 210°
2026-05-01 09:14 39.42671 20.01281 2915 ft 183 kts 237°
2026-05-01 09:14 39.42235 19.99744 2907 ft 183 kts 264°
2026-05-01 09:14 39.42365 19.98117 2907 ft 184 kts 291°
2026-05-01 09:15 39.43026 19.96749 2910 ft 182 kts 317°
2026-05-01 09:15 39.44075 19.95883 2911 ft 179 kts 343°
2026-05-01 09:15 39.45279 19.95500 2928 ft 174 kts 349°
2026-05-01 09:15 39.46441 19.95140 2913 ft 170 kts 349°
2026-05-01 09:16 39.47559 19.94812 2917 ft 155 kts 349°
2026-05-01 09:16 39.48599 19.94520 2750 ft 149 kts 351°
2026-05-01 09:16 39.49601 19.94256 2499 ft 146 kts 351°
2026-05-01 09:17 39.51561 19.93720 2169 ft 142 kts 348°
2026-05-01 09:17 39.52521 19.93368 2032 ft 144 kts 345°
2026-05-01 09:17 39.54421 19.92655 1395 ft 141 kts 349°
2026-05-01 09:18 39.55376 19.92414 1108 ft 139 kts 351°
2026-05-01 09:18 39.57277 19.91918 585 ft 139 kts 354°
2026-05-01 09:19 39.59177 19.91471 91 ft 139 kts 352°
2026-05-01 09:19 39.60051 19.91252 21 ft 100 kts 349°
2026-05-01 09:19 39.60464 19.91147 19 ft 19 kts 350°
2026-05-01 09:20 39.60608 19.91225 19 ft 7 kts 27°
2026-05-01 09:20 39.60724 19.91205 18 ft 7 kts 353°
2026-05-01 09:21 39.60756 19.91303 19 ft 4 kts 79°
2026-05-01 09:21 39.60761 19.91334 18 ft 0 kts 79°